COSMOS 1275 DEB

Satellite information

Favourite Embed

Satellite Type and Status

DEBRISIN ORBIT

Key statistics

Satellite COSMOS 1275 DEB at a glance.

Uptime

16264

Days in orbit

Revolutions

≈ 13.9

Per day

Orbit

LEO

Low Earth Orbit

Inclination

83.0

Latest

Satellite identification and parameters

Extended collection of information and parameters for COSMOS 1275 DEB.

Object identification

Identified? True

Debris? True

Object name: COSMOS 1275 DEB

International designator: 1981-053HL

Object number (NORAD): 13816

Object ID (CCSDS): 13816

Country: COMMONWEALTH OF INDEPENDENT STATES (CIS)

Current information (Y/N): Y

RCS size: SMALL

Orbital parameters

Period: 103.754 minutes

Inclination: 82.9849 deg

SMA: 7314.14 km

Apoapsis: 1055.47 km

Periapsis: 816.539 km

RAAN: 211.7488 deg

Eccentricy: 0.0163335

Argument of periapsis: 353.9982 deg

Mean anomaly: 33.6047 deg

Mean motion: 13.87899084 rev/day

Mean motion (dot): 0.00003397 rev/day2

B* drag term: 0.002560556 1/REarth

Two-line elements (TLE)

Creation date: Dec. 14, 2025, 3:07 a.m.

Reference frame: TEME

Reference center: EARTH

Epoch: Dec. 13, 2025, 2:14 p.m. UTC

TLE line 0: 0 COSMOS 1275 DEB

TLE line 1: 1 13816U 81053HL 25347.59369909 .00003397 00000-0 25606-2 0 9990

TLE line 2: 2 13816 82.9849 211.7488 0163335 353.9982 33.6047 13.87899084134538

Live tracking on map

Real-time ground track for satellite COSMOS 1275 DEB.

In-orbit conjunctions

A list of the most updated potential collisions computed for object COSMOS 1275 DEB.

Target Orbit TCA Probability of collision Miss distance Type
COSMOS 1275 DEB LEO 2024-11-14 13:11:14 0.0002228002 696.0 (m) DEBRIS
FENGYUN 1C DEB SSO 2024-11-11 09:42:44 0.000529772 395.0 (m) DEBRIS
SL-8 R/B LEO 2024-09-27 03:59:14 0.0006204584 175.0 (m) ROCKET BODY

Associated space launch

Navigation satellite providing location information for the Tsiklon-B navigation system

COSMOS 1275 DEB was lifted into orbit during the mission ‘Kosmos-3M | Parus 27’, on board a Kosmos-3M space rocket.

The launch took place on June 4, 1981, 3:41 p.m. from 132/2.

For more information about the launch, click the button.

Launch to space Kosmos-3M | Parus 27
Kosmos-3M | Parus 27

Agency: N/A

Status: Launch Successful

Launch date: June 4, 1981, 3:41 p.m. UTC

Rocket: Kosmos-3M

Launch pad: 132/2

Location: Plesetsk Cosmodrome, Russian Federation

...

Latest news about this satellite

There are no fresh news available about this satellite. Check back as we update our databases every day.


Newsletter sign-up

Weekly statistics, charts and insights to help you stay on top of the space industry.